CZ-3B DEB, 42473

Orbit data source: Space-Track

CZ-3B DEB, 42473 is space debris in HEO originally from a launch on Mon, 19 Dec 2011 UTC launched from the Xichang Space Center, China (XSC). Debris objects in space refer to the collection of defunct objects orbiting the Earth. Examples of debris include non-operational satellites, rocket bodies, and fragments generated from explosions, collisions, or faulty payload assembly.

Loading next visibility...
Identifier
42473, 2011-077AN
Orbit
HEO
Country
Flag of CNCN / PRC
Related business
Manufacturer
CALT
Mission
Spacecraft
Bus & Motor
Unknown
Mass
Unknown
Launch date (UTC)
2011-12-19 (14 years ago)
Launch vehicle
Unknown
Launch site
Xichang Space Center, China (XSC)
Object type
Payload
Rocket body
Debris
Shape & HBR
Unknown shape, 2.1 m
Radar Cross Section
Medium (>0.1 m² and <1 m²)

Expand to show TLE details & history
Last TLE update: 2 days ago

TLE from 2 days ago
0 CZ-3B DEB
1 42473U 11077AN  26093.86098841 -.00000149  00000-0  00000-0 0  9995
2 42473  23.2231  77.1708 7158416  80.1586 347.5630  1.69221017 61830
Epoch: 2026-04-03T20:39Z
TLE epoch observation values (Epoch: 2026-04-03T20:39:49.398Z)
Latitude
-0.00007°
Longitude
-65.05169°
Altitude
6,557.113 km
Speed
6.945 km/s
True Right ascension
05h 08m 22s
True Declination
0° 00' 00"
Sunlit
Object was in daylight at epoch
Visualization orbit readout
Latitude
Unknown
Longitude
Unknown
Altitude
Unknown
Speed
Unknown
Apparent Right ascension
Unknown
Apparent Declination
Unknown
Sunlit
N/A
Visualization observer readout
Local Sidereal Time
02:15:14
Azimuth
Unknown
Elevation
Unknown
Doppler factor
Unknown
Orbital elements
Apogee altitude
44,667.479 km
Perigee altitude
2,075.464 km
Semi-major axis
29,749.609 km
Eccentricity
0.71584
Inclination
23.2231°
RAAN
77.1708°
Arg. of periapsis
80.1586°
True anomaly
280.69029°
Mean anomaly
347.563°
Eccentric anomaly
322.7199°
Mean motion
0.42298 °/min
Orbital period
851.1 mins
BSTAR
0
Loading maneuver chart data...
Computing Atmospheric mass density...
Loading historical data...
Loading historical data...
Loading historical data...
Loading historical data...
Loading historical data...
Loading historical data...
Loading historical data...

Documentation

Showing up to 5 results
|